Location: Équennes
(49.7375°N, 1.9622°E)
Time: 01:26:30
(UTC+00:00)

Cosmos 2263 Rocket - Pass Details

Date: 28 January 2023
Orbit: 824 x 847 km, 71.0° (Epoch: 30 March)

Event Time Altitude Azimuth Distance (km) Brightness Sun altitude
Rises 18:49:12 0° 326° (NNW) 3,376 5.7 -20.8°
Reaches altitude 10° 18:51:45 10° 320° (NW) 2,437 5.1 -21.2°
Maximum altitude 18:56:57 41° 251° (WSW) 1,174 3.4 -22.0°
Drops below altitude 10° 19:02:06 10° 183° (S) 2,419 4.6 -22.9°
Sets 19:04:38 0° 176° (S) 3,349 5.3 -23.3°
